Terminal Aerodrome Forecast
Issued by NWS Boston, MA

Home | Current Version | Previous Version | Text Only | Print | Product List | Glossary On
Versions: 1 2 3 4 5 6 7 8 9 10 11 12 13 14 15 16 17 18 19 20 21 22 23 24 25 26 27 28 29 30 31 32 33 34 35 36 37 38 39 40 41 42
000
FTUS41 KBOX 071123
TAFBOS
TAF
KBOS 071123Z 0712/0818 25010KT P6SM SKC
     FM071500 VRB03KT P6SM SKC
     FM080000 06008KT P6SM SCT250
     FM080600 07015KT P6SM BKN015
     FM081200 03019G28KT P6SM -SN BKN015=

USA.gov is the U.S. government's official web portal to all federal, state and local government web resources and services.